Stations météo

Publicité
St-Auban-Sur-Durance, France (7588): Température de l'air & dewpoint: 14.04.2019 22:00:00 - 20.04.2019 22:00:00 (CEST)St-Auban-Sur-Durance, France (7588): Température de l'air 5cm: 14.04.2019 22:00:00 - 20.04.2019 22:00:00 (CEST)St-Auban-Sur-Durance, France (7588): Température de l'air -20cm: 14.04.2019 22:00:00 - 20.04.2019 22:00:00 (CEST)St-Auban-Sur-Durance, France (7588): Vitesse du vent & gusts: 14.04.2019 22:00:00 - 20.04.2019 22:00:00 (CEST)St-Auban-Sur-Durance, France (7588): Direction du vent: 14.04.2019 22:00:00 - 20.04.2019 22:00:00 (CEST)St-Auban-Sur-Durance, France (7588): reduced air pressure: 14.04.2019 22:00:00 - 20.04.2019 22:00:00 (CEST)St-Auban-Sur-Durance, France (7588): visibility: 14.04.2019 22:00:00 - 20.04.2019 22:00:00 (CEST)St-Auban-Sur-Durance, France (7588): Ensoleillement: 14.04.2019 22:00:00 - 20.04.2019 22:00:00 (CEST)St-Auban-Sur-Durance, France (7588): Quantités de précipitations: 14.04.2019 22:00:00 - 20.04.2019 22:00:00 (CEST)
Date & Time tt [°C] td [°C] tt 5cm [°C] tt -20cm [°C] ff [km/h] ff [knt] fx [km/h] fx [knt] dd ppp [hPa] vv [km] sd [min] rr [mm]
20.04.2019 22:00:00 12,8 4,7 11,7 15,5 3 1 5 3 ESE 1021,6 20 0 0,0
20.04.2019 21:00:00 14,1 3,5 12,4 15,5 2 1 9 5 NNE 1021,4 20 0 0,0
20.04.2019 20:00:00 16,0 2,7 15,9 15,5 8 5 24 13 WSW 1021,0 20 0 0,0
20.04.2019 19:00:00 17,4 2,9 18,2 15,4 15 8 31 17 SW 1020,5 20 0 0,0
20.04.2019 18:00:00 18,4 3,4 20,0 15,2 18 10 43 23 SW 1020,1 20 3 0,0
20.04.2019 17:00:00 20,2 5,0 23,4 14,8 23 12 35 19 SW 1019,8 20 37 0,0
20.04.2019 16:00:00 20,6 5,0 24,8 14,5 21 12 30 16 SW 1019,8 20 42 0,0
20.04.2019 15:00:00 21,2 2,9 26,7 14,1 19 10 31 17 SSW 1020,4 20 57 0,0
20.04.2019 14:00:00 20,9 2,2 27,8 13,8 15 8 25 14 SSW 1021,1 20 60 0,0
20.04.2019 13:00:00 20,0 2,3 26,7 13,5 9 5 16 9 SSW 1022,0 20 60 0,0
20.04.2019 12:00:00 18,7 4,5 25,9 13,4 6 4 16 8 SE 1023,0 20 60 0,0
20.04.2019 11:00:00 16,9 2,5 21,6 13,3 4 2 14 8 N 1024,1 20 60 0,0
20.04.2019 10:00:00 14,2 6,0 17,0 13,5 5 3 14 7 ENE 1025,0 20 60 0,0
20.04.2019 09:00:00 11,5 4,9 12,7 13,6 10 5 17 9 ESE 1026,1 20 60 0,0
20.04.2019 08:00:00 9,1 4,1 6,2 13,7 8 5 20 11 ESE 1026,6 20 45 0,0
20.04.2019 07:00:00 7,0 3,6 5,6 13,9 5 3 22 12 E 1026,8 20 0 0,0
20.04.2019 06:00:00 6,3 3,8 4,9 14,1 11 6 25 13 E 1026,9 20 0 0,0
20.04.2019 05:00:00 7,1 3,7 6,2 14,2 9 5 22 12 ENE 1027,1 20 0 0,0
20.04.2019 04:00:00 7,1 3,9 6,5 14,4 7 4 21 11 ENE 1027,2 20 0 0,0
20.04.2019 03:00:00 7,6 4,2 6,5 14,5 8 5 14 7 ENE 1027,2 20 0 0,0
20.04.2019 02:00:00 8,5 3,9 6,7 14,7 6 3 9 5 NE 1027,5 20 0 0,0
20.04.2019 01:00:00 9,0 3,8 8,2 14,8 6 4 12 7 E 1027,8 20 0 0,0
20.04.2019 00:00:00 11,0 3,8 10,3 14,9 4 2 9 5 ESE 1027,5 20 0 0,0
19.04.2019 23:00:00 12,3 3,8 11,3 15,0 4 2 9 5 ESE 1027,7 20 0 0,0
19.04.2019 22:00:00 13,7 3,2 12,0 15,1 6 3 15 8 SW 1027,2 20 0 0,0
19.04.2019 21:00:00 14,5 3,3 13,3 15,1 9 5 19 10 WSW 1026,6 20 0 0,0
19.04.2019 20:00:00 16,7 3,7 16,0 15,0 13 7 28 15 SW 1025,5 20 10 0,0
19.04.2019 19:00:00 18,4 3,0 18,8 14,8 21 12 36 19 SW 1024,5 20 11 0,0
19.04.2019 18:00:00 20,4 4,0 22,5 14,6 26 14 36 20 SW 1023,7 20 46 0,0
19.04.2019 17:00:00 20,7 3,8 24,0 14,3 24 13 37 20 SW 1023,3 20 24 0,0
19.04.2019 16:00:00 21,3 4,4 25,6 14,0 21 12 31 17 SW 1023,2 20 38 0,0
19.04.2019 15:00:00 20,7 4,7 25,5 13,6 22 12 34 18 SSW 1023,6 20 51 0,0
19.04.2019 14:00:00 20,6 5,0 27,3 13,3 16 9 28 15 WSW 1023,9 20 60 0,0
19.04.2019 13:00:00 19,8 4,7 26,4 13,0 15 8 25 14 SW 1024,3 20 60 0,0
19.04.2019 12:00:00 18,6 4,7 25,6 12,9 11 6 16 9 SSW 1024,9 20 60 0,0
19.04.2019 11:00:00 16,7 4,7 20,4 12,9 2 1 9 5 WSW 1025,3 20 60 0,0
19.04.2019 10:00:00 12,8 4,2 15,8 13,0 6 3 14 7 ENE 1025,9 20 60 0,0
19.04.2019 09:00:00 9,8 4,8 12,0 13,1 5 3 11 6 ENE 1026,3 20 60 0,0
19.04.2019 08:00:00 7,0 4,3 4,6 13,3 5 3 15 8 NE 1026,5 20 32 0,0
19.04.2019 07:00:00 5,1 2,9 4,4 13,4 10 5 14 8 NNE 1026,1 20 0 0,0
19.04.2019 06:00:00 6,1 3,3 5,8 13,6 10 6 16 9 NNE 1025,5 20 0 0,0
19.04.2019 05:00:00 6,9 3,3 6,2 13,7 11 6 16 9 NNE 1025,4 20 0 0,0
19.04.2019 04:00:00 7,1 3,7 6,6 13,9 8 4 16 8 NE 1025,0 20 0 0,0
19.04.2019 03:00:00 8,0 3,6 7,6 14,0 11 6 16 9 NNE 1024,5 20 0 0,0
19.04.2019 02:00:00 8,5 4,1 8,3 14,1 6 4 12 6 NE 1024,4 20 0 0,0
19.04.2019 01:00:00 8,7 3,1 7,7 14,3 8 5 13 7 NE 1024,3 20 0 0,0
19.04.2019 00:00:00 8,9 3,1 7,8 14,4 0 0 6 3 N 1024,0 20 0 0,0
18.04.2019 23:00:00 9,9 2,3 8,6 14,5 0 0 9 5 N 1023,5 20 0 0,0
18.04.2019 22:00:00 11,9 2,3 10,0 14,6 5 3 10 5 ESE 1022,7 20 0 0,0
18.04.2019 21:00:00 13,6 2,5 11,2 14,5 3 1 13 7 NNW 1021,7 20 0 0,0
18.04.2019 20:00:00 16,5 0,2 16,6 14,5 9 5 21 11 W 1020,6 20 0 0,0
18.04.2019 19:00:00 17,5 1,4 18,6 14,3 17 9 30 16 W 1019,9 20 0 0,0
18.04.2019 18:00:00 18,7 2,5 20,7 14,1 18 10 36 19 WSW 1019,1 20 11 0,0
18.04.2019 17:00:00 19,3 4,2 22,8 13,8 25 13 39 21 SW 1018,7 20 46 0,0
18.04.2019 16:00:00 20,2 4,6 24,7 13,5 29 16 43 23 SW 1018,7 20 60 0,0
18.04.2019 15:00:00 20,7 4,3 26,5 13,1 26 14 38 20 SW 1018,6 20 60 0,0
18.04.2019 14:00:00 20,8 5,6 26,6 12,8 19 11 34 18 SW 1018,5 20 60 0,0
18.04.2019 13:00:00 19,3 5,0 26,0 12,5 13 7 29 16 SW 1019,1 20 60 0,0
18.04.2019 12:00:00 18,3 5,8 25,4 12,4 18 10 27 14 SW 1019,8 20 60 0,0
18.04.2019 11:00:00 15,9 6,6 20,3 12,4 5 3 9 5 SSW 1020,6 20 60 0,0
18.04.2019 10:00:00 12,5 5,9 16,3 12,4 5 3 13 7 E 1021,5 20 60 0,0
18.04.2019 09:00:00 9,6 5,2 11,0 12,6 5 3 14 8 ENE 1021,9 20 60 0,0
18.04.2019 08:00:00 6,4 4,2 4,7 12,7 6 3 11 6 ENE 1022,3 20 50 0,0
18.04.2019 07:00:00 4,9 3,7 4,8 12,9 6 4 11 6 NNE 1022,1 20 0 0,0
18.04.2019 06:00:00 5,5 3,8 5,0 13,0 6 3 10 6 NE 1021,9 20 0 0,0
18.04.2019 05:00:00 5,5 3,8 4,8 13,2 6 3 10 5 NNE 1022,1 20 0 0,0
18.04.2019 04:00:00 6,0 3,7 5,4 13,3 5 3 8 4 NE 1022,4 20 0 0,0
18.04.2019 03:00:00 6,9 4,0 5,9 13,4 3 1 12 6 NE 1022,6 20 0 0,0
18.04.2019 02:00:00 7,2 3,8 6,7 13,6 8 5 15 8 SE 1023,0 20 0 0,0
18.04.2019 01:00:00 8,2 4,4 7,2 13,7 5 3 14 7 ESE 1022,8 20 0 0,0
18.04.2019 00:00:00 9,1 4,7 7,3 13,8 5 3 11 6 SE 1022,3 20 0 0,0
17.04.2019 23:00:00 9,8 3,7 8,0 13,9 0 0 11 6 N 1021,7 20 0 0,0
17.04.2019 22:00:00 11,7 3,7 10,7 13,9 8 4 13 7 SW 1020,8 20 0 0,0
17.04.2019 21:00:00 13,0 3,6 12,4 13,9 12 7 26 14 SSW 1019,9 20 0 0,0
17.04.2019 20:00:00 15,4 2,9 15,3 13,9 18 10 30 16 S 1018,6 20 17 0,0
17.04.2019 19:00:00 17,2 3,1 18,2 13,7 17 9 30 16 SSW 1017,9 20 6 0,0
17.04.2019 18:00:00 18,7 4,8 20,5 13,5 14 7 30 16 SW 1017,4 20 11 0,0
17.04.2019 17:00:00 19,0 4,3 21,5 13,1 22 12 37 20 SW 1017,5 20 41 0,0
17.04.2019 16:00:00 19,8 5,1 25,4 12,7 23 12 36 19 SW 1017,5 20 60 0,0
17.04.2019 15:00:00 19,3 5,7 24,9 12,3 19 10 31 17 SW 1018,1 20 60 0,0
17.04.2019 14:00:00 18,4 5,6 24,9 11,9 22 12 31 17 SW 1018,5 20 60 0,0
17.04.2019 13:00:00 17,9 5,8 24,9 11,6 8 4 21 12 WSW 1019,0 20 60 0,0
17.04.2019 12:00:00 16,0 5,3 22,8 11,5 4 2 14 8 WSW 1019,8 20 60 0,0
17.04.2019 11:00:00 13,4 6,3 18,3 11,4 9 5 19 10 NE 1020,7 20 60 0,0
17.04.2019 10:00:00 10,8 5,7 14,3 11,5 9 5 18 10 ENE 1021,5 20 60 0,0
17.04.2019 09:00:00 8,2 5,8 8,2 11,6 4 2 16 8 E 1022,2 20 60 0,0
17.04.2019 08:00:00 5,5 4,9 3,0 11,8 6 3 10 5 E 1022,7 20 42 0,0
17.04.2019 07:00:00 3,7 3,4 2,2 11,9 4 2 12 6 E 1022,5 20 0 0,0
17.04.2019 06:00:00 4,1 3,8 3,7 12,2 6 3 11 6 NE 1022,1 19 0 0,0
17.04.2019 05:00:00 4,3 4,2 2,4 12,3 8 4 13 7 E 1022,0 18 0 0,0
17.04.2019 04:00:00 4,4 4,1 3,7 12,4 6 3 10 6 ENE 1022,4 15 0 0,0
17.04.2019 03:00:00 4,5 4,2 3,5 12,6 5 3 10 5 ENE 1022,6 14 0 0,0
17.04.2019 02:00:00 4,5 4,1 3,8 12,8 5 3 10 6 NE 1022,9 18 0 0,0
17.04.2019 01:00:00 5,0 4,4 4,6 12,9 2 1 7 4 NNW 1022,7 20 0 0,0
17.04.2019 00:00:00 5,3 4,4 4,8 13,0 0 0 6 4 N 1022,5 20 0 0,0
16.04.2019 23:00:00 6,5 5,3 5,6 13,1 4 2 9 5 ENE 1022,1 20 0 0,0
16.04.2019 22:00:00 7,3 5,8 7,3 13,1 3 1 8 4 NE 1022,1 20 0 0,0
16.04.2019 21:00:00 8,8 6,2 7,7 13,2 0 0 7 4 N 1021,2 20 0 0,0
16.04.2019 20:00:00 10,9 6,4 10,5 13,1 3 1 9 5 N 1020,3 20 0 0,0
16.04.2019 19:00:00 12,3 6,6 14,6 12,9 2 1 8 4 N 1020,0 20 22 0,0
16.04.2019 18:00:00 12,8 6,6 15,5 12,8 4 2 9 5 E 1019,9 20 45 0,0
16.04.2019 17:00:00 11,8 6,9 13,4 12,7 2 1 7 4 SE 1020,4 20 0 0,0
16.04.2019 16:00:00 11,1 8,0 13,3 12,6 3 2 9 5 SSW 1020,8 20 0 0,2
16.04.2019 15:00:00 10,6 8,5 12,3 12,6 6 3 13 7 SSW 1021,2 20 0 0,2
16.04.2019 14:00:00 10,3 7,9 12,8 12,5 7 4 12 7 SW 1021,4 20 0 0,2
16.04.2019 13:00:00 10,0 7,4 12,5 12,4 5 3 12 6 SW 1021,5 20 0 0,0
16.04.2019 12:00:00 9,6 7,4 11,0 12,4 6 4 18 10 S 1021,6 20 0 0,4
16.04.2019 11:00:00 9,1 7,4 9,7 12,4 13 7 21 12 SSW 1021,3 17 0 0,4
16.04.2019 10:00:00 9,5 6,6 10,8 12,4 15 8 20 11 SW 1020,5 20 0 0,0
16.04.2019 09:00:00 10,3 4,9 12,1 12,5 0 0 7 4 N 1019,6 20 12 0,0
16.04.2019 08:00:00 9,1 5,3 8,8 12,6 3 1 7 4 N 1019,5 20 13 0,0
16.04.2019 07:00:00 8,2 5,3 8,8 12,7 5 3 10 5 SE 1019,6 20 0 0,0
16.04.2019 06:00:00 8,8 4,6 8,7 12,7 5 3 11 6 E 1019,2 20 0 0,0
16.04.2019 05:00:00 8,3 5,4 8,8 12,8 2 1 9 5 E 1019,7 20 0 0,0
16.04.2019 04:00:00 8,6 5,0 8,9 12,9 5 3 12 7 SE 1019,8 20 0 0,0
16.04.2019 03:00:00 8,5 4,3 8,9 13,0 3 2 6 4 ESE 1019,6 20 0 0,0
16.04.2019 02:00:00 8,5 3,9 9,0 13,1 3 2 9 5 SE 1019,8 20 0 0,0
16.04.2019 01:00:00 8,8 4,0 8,6 13,2 3 1 5 3 SE 1019,6 20 0 0,0
16.04.2019 00:00:00 9,2 3,6 8,8 13,3 2 1 8 4 SE 1019,6 20 0 0,0
15.04.2019 23:00:00 9,8 3,7 9,4 13,4 6 3 19 10 SSW 1019,7 20 0 0,0
15.04.2019 22:00:00 11,2 3,5 11,1 13,4 11 6 21 11 SW 1019,3 20 0 0,0
15.04.2019 21:00:00 12,4 3,6 12,8 13,3 13 7 32 17 SW 1018,7 20 0 0,0
15.04.2019 20:00:00 13,3 3,6 14,0 13,3 22 12 38 20 SW 1017,8 20 0 0,0
15.04.2019 19:00:00 14,7 4,7 16,0 13,1 19 10 35 19 S 1016,5 20 2 0,0
15.04.2019 18:00:00 16,5 4,2 20,1 12,8 22 12 36 19 SSW 1015,8 20 60 0,0
15.04.2019 17:00:00 18,2 3,6 21,4 12,4 22 12 33 18 SW 1015,4 20 56 0,0
15.04.2019 16:00:00 17,3 1,7 23,0 12,1 23 12 35 19 SW 1015,8 20 60 0,0
15.04.2019 15:00:00 17,3 1,7 23,5 11,7 19 10 38 20 SSW 1016,3 20 60 0,0
15.04.2019 14:00:00 16,5 -0,3 23,7 11,3 15 8 26 14 SSW 1016,8 20 60 0,0
15.04.2019 13:00:00 15,3 -0,5 23,4 11,0 13 7 19 11 SSW 1017,3 20 60 0,0
15.04.2019 12:00:00 13,8 -1,0 20,3 10,9 4 2 11 6 WNW 1018,3 20 60 0,0
15.04.2019 11:00:00 12,1 -1,1 16,3 10,9 7 4 15 8 ENE 1019,0 20 60 0,0
15.04.2019 10:00:00 8,6 -2,7 11,4 11,0 8 5 17 9 ENE 1019,9 20 60 0,0
15.04.2019 09:00:00 5,8 -1,8 6,2 11,2 6 4 18 10 E 1020,3 20 60 0,0
15.04.2019 08:00:00 2,8 -2,5 1,4 11,4 6 3 13 7 ESE 1020,5 20 35 0,0
15.04.2019 07:00:00 2,7 -2,8 2,1 11,5 4 2 18 10 SSE 1019,6 20 0 0,0
15.04.2019 06:00:00 4,1 -3,2 4,1 11,7 3 2 29 15 ESE 1018,7 20 0 0,0
15.04.2019 05:00:00 4,3 -3,0 4,5 11,9 11 6 29 16 ENE 1018,5 20 0 0,0
15.04.2019 04:00:00 4,8 -3,2 4,8 12,0 10 6 30 16 NE 1018,4 20 0 0,0
15.04.2019 03:00:00 5,8 -3,8 5,8 12,2 13 7 34 19 NE 1017,9 20 0 0,0
15.04.2019 02:00:00 6,6 -3,9 6,7 12,4 18 10 35 19 NE 1017,1 20 0 0,0
15.04.2019 01:00:00 7,0 -4,1 7,0 12,6 16 9 36 19 NNE 1016,7 20 0 0,0
15.04.2019 00:00:00 7,9 -4,6 7,5 12,7 20 11 36 19 NNE 1016,0 20 0 0,0
14.04.2019 23:00:00 8,4 -4,4 8,0 12,9 16 8 34 18 NNE 1015,4 20 0 0,0
14.04.2019 22:00:00 9,1 -4,5 9,0 12,9 18 10 39 21 NNE 1013,7 20 0 0,0

tt = Température de l'air
td = dewpoint
tt 5cm = Température de l'air 5cm
tt -20cm = Température de l'air -20cm
ff = Vitesse du vent
fx = gusts
dd = Direction du vent
ppp = reduced air pressure
vv = visibility
sd = Ensoleillement
rr = Quantités de précipitations

stations d'obs. à proximité